Location: Ambatotampy
(18.8181°S, 47.6186°E)
Time: 00:09:41
(UTC+00:00)

FALCON 9 DEB - Pass Details

Date: 21 January 2021
Orbit: 376 x 392 km, 53.0° (Epoch: 24 February)

Event Time Altitude Azimuth Distance (km) Brightness Sun altitude
Exits shadow 01:28:41 - 235° (SW) 1,578 5.7 -13.8°
Reaches altitude 10° 01:29:02 10° 237° (WSW) 1,448 5.5 -13.7°
Maximum altitude 01:32:01 34° 304° (NW) 670 3.5 -13.1°
Drops below altitude 10° 01:34:57 10° 12° (NNE) 1,425 5.6 -12.5°
Sets 01:37:14 0° 21° (NNE) 2,323 6.8 -12.0°
